Time,TemperatureF,DewpointF,PressureIn,WindDirection,WindDirectionDegrees,WindSpeedMPH,WindSpeedGustMPH,Humidity,HourlyPrecipIn,Conditions,Clouds,dailyrainin,SoftwareType,DateUTC
2013-08-17 00:02:00,64.2,55.0,30.01,NW,324,5.0,6.0,71,0.00,,,0.00,weatherlink.com 1.10,2013-08-17 07:02:00,
2013-08-17 00:17:00,63.6,55.0,30.02,NE,34,2.0,9.0,74,0.00,,,0.00,weatherlink.com 1.10,2013-08-17 07:17:00,
2013-08-17 00:32:00,63.3,55.0,30.01,NNW,346,2.0,8.0,75,0.00,,,0.00,weatherlink.com 1.10,2013-08-17 07:32:00,
2013-08-17 00:47:00,63.0,55.0,30.01,North,6,1.0,7.0,75,0.00,,,0.00,weatherlink.com 1.10,2013-08-17 07:47:00,
2013-08-17 01:02:00,63.0,55.0,30.01,NNE,32,1.0,5.0,74,0.00,,,0.00,weatherlink.com 1.10,2013-08-17 08:02:00,
2013-08-17 01:17:00,62.7,55.0,30.01,West,271,0.0,3.0,75,0.00,,,0.00,weatherlink.com 1.10,2013-08-17 08:17:00,
2013-08-17 01:32:00,61.8,55.0,30.00,NNW,348,0.0,1.0,77,0.00,,,0.00,weatherlink.com 1.10,2013-08-17 08:32:00,
2013-08-17 01:47:00,61.1,55.0,30.01,WNW,291,0.0,1.0,79,0.00,,,0.00,weatherlink.com 1.10,2013-08-17 08:47:00,
2013-08-17 02:02:00,60.9,54.0,30.01,NE,34,2.0,2.0,79,0.00,,,0.00,weatherlink.com 1.10,2013-08-17 09:02:00,
2013-08-17 02:17:00,60.6,54.0,30.02,NNE,20,0.0,1.0,79,0.00,,,0.00,weatherlink.com 1.10,2013-08-17 09:17:00,
2013-08-17 02:32:00,61.4,55.0,30.02,NNE,27,0.0,4.0,78,0.00,,,0.00,weatherlink.com 1.10,2013-08-17 09:32:00,
2013-08-17 02:47:00,61.3,55.0,30.02,NE,54,0.0,2.0,79,0.00,,,0.00,weatherlink.com 1.10,2013-08-17 09:47:00,
2013-08-17 03:02:00,60.7,55.0,30.02,NE,53,0.0,1.0,81,0.00,,,0.00,weatherlink.com 1.10,2013-08-17 10:02:00,
2013-08-17 03:17:00,60.4,55.0,30.02,NNE,22,0.0,1.0,82,0.00,,,0.00,weatherlink.com 1.10,2013-08-17 10:17:00,
2013-08-17 03:32:00,60.6,55.0,30.02,NNE,15,0.0,0.0,82,0.00,,,0.00,weatherlink.com 1.10,2013-08-17 10:32:00,
2013-08-17 03:47:00,61.2,56.0,30.02,NNE,19,0.0,2.0,82,0.00,,,0.00,weatherlink.com 1.10,2013-08-17 10:47:00,
2013-08-17 04:02:00,61.5,56.0,30.03,WSW,252,0.0,1.0,81,0.00,,,0.00,weatherlink.com 1.10,2013-08-17 11:02:00,
2013-08-17 04:17:00,60.1,56.0,30.02,NW,326,0.0,2.0,85,0.00,,,0.00,weatherlink.com 1.10,2013-08-17 11:17:00,
2013-08-17 04:32:00,60.3,56.0,30.02,NE,47,0.0,2.0,84,0.00,,,0.00,weatherlink.com 1.10,2013-08-17 11:32:00,
2013-08-17 04:47:00,60.9,56.0,30.02,NNE,23,0.0,3.0,83,0.00,,,0.00,weatherlink.com 1.10,2013-08-17 11:47:00,
2013-08-17 05:03:00,60.1,56.0,30.02,NW,324,0.0,2.0,85,0.00,,,0.00,weatherlink.com 1.10,2013-08-17 12:03:00,
2013-08-17 05:18:00,59.8,56.0,30.02,NW,325,0.0,0.0,87,0.00,,,0.00,weatherlink.com 1.10,2013-08-17 12:18:00,
2013-08-17 05:33:00,59.4,56.0,30.03,WNW,302,0.0,3.0,88,0.00,,,0.00,weatherlink.com 1.10,2013-08-17 12:33:00,
2013-08-17 05:48:00,59.6,56.0,30.03,NNE,22,0.0,2.0,87,0.00,,,0.00,weatherlink.com 1.10,2013-08-17 12:48:00,
2013-08-17 06:03:00,59.8,56.0,30.03,East,86,0.0,1.0,86,0.00,,,0.00,weatherlink.com 1.10,2013-08-17 13:03:00,
2013-08-17 06:18:00,59.8,56.0,30.04,East,95,0.0,1.0,87,0.00,,,0.00,weatherlink.com 1.10,2013-08-17 13:18:00,
2013-08-17 06:33:00,59.6,56.0,30.04,ESE,106,0.0,0.0,87,0.00,,,0.00,weatherlink.com 1.10,2013-08-17 13:33:00,
2013-08-17 06:48:00,59.3,56.0,30.04,NNE,15,0.0,1.0,87,0.00,,,0.00,weatherlink.com 1.10,2013-08-17 13:48:00,
2013-08-17 07:03:00,59.3,56.0,30.04,SE,138,0.0,0.0,88,0.00,,,0.00,weatherlink.com 1.10,2013-08-17 14:03:00,
2013-08-17 07:18:00,59.9,57.0,30.05,SW,218,0.0,0.0,89,0.00,,,0.00,weatherlink.com 1.10,2013-08-17 14:18:00,
2013-08-17 07:33:00,60.5,57.0,30.05,SW,218,0.0,0.0,88,0.00,,,0.00,weatherlink.com 1.10,2013-08-17 14:33:00,
2013-08-17 07:48:00,61.3,58.0,30.05,SW,219,0.0,0.0,88,0.00,,,0.00,weatherlink.com 1.10,2013-08-17 14:48:00,
2013-08-17 08:03:00,62.0,58.0,30.05,SW,222,0.0,0.0,87,0.00,,,0.00,weatherlink.com 1.10,2013-08-17 15:03:00,
2013-08-17 08:18:00,62.7,59.0,30.06,SE,141,0.0,0.0,86,0.00,,,0.00,weatherlink.com 1.10,2013-08-17 15:18:00,
2013-08-17 08:33:00,63.0,59.0,30.07,SW,217,0.0,0.0,85,0.00,,,0.00,weatherlink.com 1.10,2013-08-17 15:33:00,
2013-08-17 08:48:00,63.3,59.0,30.07,SW,222,0.0,0.0,86,0.00,,,0.00,weatherlink.com 1.10,2013-08-17 15:48:00,
2013-08-17 09:03:00,65.7,59.0,30.06,SSE,148,0.0,3.0,80,0.00,,,0.00,weatherlink.com 1.10,2013-08-17 16:03:00,
2013-08-17 09:18:00,67.2,58.0,30.06,SW,219,2.0,3.0,72,0.00,,,0.00,weatherlink.com 1.10,2013-08-17 16:18:00,
2013-08-17 09:33:00,66.3,58.0,30.07,South,181,0.0,3.0,75,0.00,,,0.00,weatherlink.com 1.10,2013-08-17 16:33:00,
2013-08-17 09:48:00,66.5,58.0,30.07,WSW,249,1.0,3.0,75,0.00,,,0.00,weatherlink.com 1.10,2013-08-17 16:48:00,
2013-08-17 10:03:00,66.5,59.0,30.07,SSW,195,0.0,3.0,76,0.00,,,0.00,weatherlink.com 1.10,2013-08-17 17:03:00,
2013-08-17 10:18:00,67.7,59.0,30.07,West,266,1.0,2.0,73,0.00,,,0.00,weatherlink.com 1.10,2013-08-17 17:18:00,
2013-08-17 10:33:00,70.2,60.0,30.06,SW,217,0.0,3.0,69,0.00,,,0.00,weatherlink.com 1.10,2013-08-17 17:33:00,
2013-08-17 10:48:00,70.1,59.0,30.07,West,272,2.0,4.0,67,0.00,,,0.00,weatherlink.com 1.10,2013-08-17 17:48:00,
2013-08-17 11:03:00,69.1,59.0,30.07,WSW,243,1.0,4.0,70,0.00,,,0.00,weatherlink.com 1.10,2013-08-17 18:03:00,
2013-08-17 11:18:00,69.6,59.0,30.06,SW,229,1.0,3.0,68,0.00,,,0.00,weatherlink.com 1.10,2013-08-17 18:18:00,
2013-08-17 11:33:00,69.6,58.0,30.07,West,276,2.0,4.0,67,0.00,,,0.00,weatherlink.com 1.10,2013-08-17 18:33:00,
2013-08-17 11:48:00,69.5,59.0,30.06,WSW,252,0.0,5.0,69,0.00,,,0.00,weatherlink.com 1.10,2013-08-17 18:48:00,
2013-08-17 12:03:00,71.6,60.0,30.06,NE,44,1.0,4.0,66,0.00,,,0.00,weatherlink.com 1.10,2013-08-17 19:03:00,
2013-08-17 12:18:00,71.6,60.0,30.06,SSW,194,1.0,8.0,68,0.00,,,0.00,weatherlink.com 1.10,2013-08-17 19:18:00,
2013-08-17 12:33:00,72.3,60.0,30.05,ESE,121,3.0,7.0,66,0.00,,,0.00,weatherlink.com 1.10,2013-08-17 19:33:00,
2013-08-17 12:48:00,73.1,60.0,30.06,NW,316,2.0,9.0,63,0.00,,,0.00,weatherlink.com 1.10,2013-08-17 19:48:00,
2013-08-17 13:03:00,73.6,60.0,30.05,West,281,2.0,8.0,62,0.00,,,0.00,weatherlink.com 1.10,2013-08-17 20:03:00,
2013-08-17 13:18:00,74.9,60.0,30.05,WSW,246,0.0,8.0,61,0.00,,,0.00,weatherlink.com 1.10,2013-08-17 20:18:00,
2013-08-17 13:33:00,75.5,60.0,30.05,West,277,5.0,10.0,58,0.00,,,0.00,weatherlink.com 1.10,2013-08-17 20:33:00,
2013-08-17 13:48:00,75.5,60.0,30.04,West,280,4.0,12.0,59,0.00,,,0.00,weatherlink.com 1.10,2013-08-17 20:48:00,
2013-08-17 14:03:00,76.3,61.0,30.04,West,263,11.0,13.0,59,0.00,,,0.00,weatherlink.com 1.10,2013-08-17 21:03:00,
2013-08-17 14:18:00,76.8,60.0,30.03,NW,323,7.0,11.0,56,0.00,,,0.00,weatherlink.com 1.10,2013-08-17 21:18:00,
2013-08-17 14:34:00,76.6,60.0,30.03,NW,325,3.0,8.0,56,0.00,,,0.00,weatherlink.com 1.10,2013-08-17 21:34:00,
2013-08-17 14:49:00,76.2,60.0,30.03,NW,311,3.0,9.0,57,0.00,,,0.00,weatherlink.com 1.10,2013-08-17 21:49:00,
2013-08-17 15:04:00,76.2,60.0,30.03,North,6,4.0,11.0,58,0.00,,,0.00,weatherlink.com 1.10,2013-08-17 22:04:00,
2013-08-17 15:19:00,75.0,60.0,30.03,West,271,4.0,11.0,60,0.00,,,0.00,weatherlink.com 1.10,2013-08-17 22:19:00,
2013-08-17 15:34:00,75.9,60.0,30.03,NW,308,8.0,11.0,58,0.00,,,0.00,weatherlink.com 1.10,2013-08-17 22:34:00,
2013-08-17 15:49:00,76.0,60.0,30.02,NW,314,5.0,9.0,58,0.00,,,0.00,weatherlink.com 1.10,2013-08-17 22:49:00,
2013-08-17 16:04:00,76.2,61.0,30.02,NNW,334,5.0,14.0,59,0.00,,,0.00,weatherlink.com 1.10,2013-08-17 23:04:00,
2013-08-17 16:19:00,76.3,60.0,30.02,NW,305,4.0,10.0,58,0.00,,,0.00,weatherlink.com 1.10,2013-08-17 23:19:00,
2013-08-17 16:34:00,76.6,60.0,30.02,NE,36,5.0,10.0,57,0.00,,,0.00,weatherlink.com 1.10,2013-08-17 23:34:00,
2013-08-17 16:49:00,75.8,61.0,30.02,NW,314,6.0,11.0,60,0.00,,,0.00,weatherlink.com 1.10,2013-08-17 23:49:00,
2013-08-17 17:04:00,75.5,61.0,30.02,NNE,33,8.0,12.0,61,0.00,,,0.00,weatherlink.com 1.10,2013-08-18 00:04:00,
2013-08-17 17:19:00,75.3,61.0,30.02,West,267,2.0,10.0,61,0.00,,,0.00,weatherlink.com 1.10,2013-08-18 00:19:00,
2013-08-17 17:34:00,75.6,61.0,30.02,NW,318,5.0,12.0,60,0.00,,,0.00,weatherlink.com 1.10,2013-08-18 00:34:00,
2013-08-17 17:49:00,74.4,60.0,30.02,NNE,30,7.0,16.0,62,0.00,,,0.00,weatherlink.com 1.10,2013-08-18 00:49:00,
2013-08-17 18:04:00,73.8,60.0,30.02,NE,41,7.0,11.0,62,0.00,,,0.00,weatherlink.com 1.10,2013-08-18 01:04:00,
2013-08-17 18:19:00,73.7,60.0,30.02,NW,326,9.0,10.0,63,0.00,,,0.00,weatherlink.com 1.10,2013-08-18 01:19:00,
2013-08-17 18:34:00,73.9,60.0,30.02,West,269,5.0,15.0,63,0.00,,,0.00,weatherlink.com 1.10,2013-08-18 01:34:00,
2013-08-17 18:49:00,73.5,60.0,30.01,WSW,240,3.0,8.0,63,0.00,,,0.00,weatherlink.com 1.10,2013-08-18 01:49:00,
2013-08-17 19:04:00,73.1,60.0,30.01,NW,326,4.0,11.0,64,0.00,,,0.00,weatherlink.com 1.10,2013-08-18 02:04:00,
2013-08-17 19:19:00,72.1,60.0,30.01,NNW,328,2.0,10.0,66,0.00,,,0.00,weatherlink.com 1.10,2013-08-18 02:19:00,
2013-08-17 19:35:00,71.8,60.0,30.01,NW,314,1.0,6.0,66,0.00,,,0.00,weatherlink.com 1.10,2013-08-18 02:35:00,
2013-08-17 19:49:00,70.8,61.0,30.01,WNW,297,2.0,8.0,70,0.00,,,0.00,weatherlink.com 1.10,2013-08-18 02:49:00,
2013-08-17 20:04:00,69.9,61.0,30.02,North,356,0.0,5.0,73,0.00,,,0.00,weatherlink.com 1.10,2013-08-18 03:04:00,
2013-08-17 20:19:00,68.2,60.0,30.02,WNW,289,2.0,6.0,76,0.00,,,0.00,weatherlink.com 1.10,2013-08-18 03:19:00,
2013-08-17 20:34:00,67.2,60.0,30.02,NE,39,4.0,9.0,78,0.00,,,0.00,weatherlink.com 1.10,2013-08-18 03:34:00,
2013-08-17 20:49:00,66.4,60.0,30.03,NNW,348,6.0,10.0,79,0.00,,,0.00,weatherlink.com 1.10,2013-08-18 03:49:00,
2013-08-17 21:04:00,65.7,59.0,30.04,NNW,340,4.0,10.0,80,0.00,,,0.00,weatherlink.com 1.10,2013-08-18 04:04:00,
2013-08-17 21:19:00,65.0,59.0,30.04,NW,314,5.0,11.0,82,0.00,,,0.00,weatherlink.com 1.10,2013-08-18 04:19:00,
2013-08-17 21:34:00,64.6,60.0,30.04,North,5,2.0,9.0,84,0.00,,,0.00,weatherlink.com 1.10,2013-08-18 04:34:00,
2013-08-17 21:49:00,64.2,60.0,30.05,North,352,2.0,8.0,85,0.00,,,0.00,weatherlink.com 1.10,2013-08-18 04:49:00,
2013-08-17 22:04:00,63.7,60.0,30.05,NNE,13,2.0,9.0,86,0.00,,,0.00,weatherlink.com 1.10,2013-08-18 05:04:00,
2013-08-17 22:20:00,63.3,59.0,30.04,WNW,292,1.0,8.0,87,0.00,,,0.00,weatherlink.com 1.10,2013-08-18 05:20:00,
2013-08-17 22:34:00,63.0,59.0,30.05,NE,34,3.0,9.0,88,0.00,,,0.00,weatherlink.com 1.10,2013-08-18 05:34:00,
2013-08-17 22:49:00,62.7,59.0,30.05,North,350,0.0,7.0,88,0.00,,,0.00,weatherlink.com 1.10,2013-08-18 05:49:00,
2013-08-17 23:04:00,62.6,59.0,30.05,NNW,328,3.0,12.0,89,0.00,,,0.00,weatherlink.com 1.10,2013-08-18 06:04:00,
2013-08-17 23:19:00,62.5,60.0,30.05,WNW,288,2.0,11.0,90,0.00,,,0.00,weatherlink.com 1.10,2013-08-18 06:19:00,
2013-08-17 23:34:00,62.5,60.0,30.05,NW,323,3.0,11.0,90,0.00,,,0.00,weatherlink.com 1.10,2013-08-18 06:34:00,
2013-08-17 23:49:00,62.6,60.0,30.06,NNW,328,2.0,13.0,90,0.00,,,0.00,weatherlink.com 1.10,2013-08-18 06:49:00,